| time (UTC) | temp C | wind direction | speed KPH | gust KPH | rain 1hr cm | rain 24hr cm | rain mn cm | humidity % | barometer mb |
| 20260506143335 | 15 | 200 | 33.8 | 48.3 | 0.00 | 0.00 | 0.00 | 80 | 298.5 |
| 20260506141833 | 15 | 200 | 33.8 | 48.3 | 0.00 | 0.00 | 0.00 | 80 | 298.5 |
| 20260506140332 | 15 | 200 | 33.8 | 48.3 | 0.00 | 0.00 | 0.00 | 80 | 298.5 |
| 20260506134834 | 13 | 200 | 22.5 | 41.8 | 0.00 | 0.00 | 0.00 | 84 | 298.5 |
| 20260506133335 | 13 | 200 | 22.5 | 41.8 | 0.00 | 0.00 | 0.00 | 84 | 298.5 |
| 20260506131833 | 13 | 200 | 22.5 | 41.8 | 0.00 | 0.00 | 0.00 | 84 | 298.5 |
| 20260506124835 | 15 | 210 | 24.1 | 46.7 | 0.00 | 0.00 | 0.00 | 83 | 298.6 |
| 20260506123333 | 15 | 210 | 24.1 | 46.7 | 0.00 | 0.00 | 0.00 | 83 | 298.6 |
| 20260506121835 | 15 | 210 | 24.1 | 46.7 | 0.00 | 0.00 | 0.00 | 83 | 298.6 |
| 20260506120333 | 15 | 210 | 24.1 | 46.7 | 0.00 | 0.00 | 0.00 | 83 | 298.6 |
| 20260506114833 | 12 | 210 | 24.1 | 38.6 | 0.00 | 0.00 | 0.00 | 90 | 298.6 |
| 20260506113333 | 12 | 210 | 24.1 | 38.6 | 0.00 | 0.00 | 0.00 | 90 | 298.6 |
| 20260506111833 | 12 | 210 | 24.1 | 38.6 | 0.00 | 0.00 | 0.00 | 90 | 298.6 |
| 20260506110333 | 12 | 210 | 24.1 | 38.6 | 0.00 | 0.00 | 0.00 | 90 | 298.6 |
| 20260506104833 | 12 | 220 | 24.1 | 37.0 | 0.00 | 0.00 | 0.00 | 90 | 298.5 |
| 20260506103333 | 12 | 220 | 24.1 | 37.0 | 0.00 | 0.00 | 0.00 | 90 | 298.5 |
| 20260506101834 | 12 | 220 | 24.1 | 37.0 | 0.00 | 0.00 | 0.00 | 90 | 298.5 |
| 20260506100333 | 12 | 220 | 24.1 | 37.0 | 0.00 | 0.00 | 0.00 | 90 | 298.5 |
| 20260506094834 | 12 | 210 | 22.5 | 46.7 | 0.00 | 0.00 | 0.00 | 90 | 298.5 |
| 20260506093334 | 12 | 200 | 22.5 | 35.4 | 0.00 | 0.00 | 0.00 | 90 | 298.5 |
| 20260506091836 | 12 | 200 | 22.5 | 35.4 | 0.00 | 0.00 | 0.00 | 90 | 298.5 |
| 20260506090333 | 12 | 200 | 22.5 | 35.4 | 0.00 | 0.00 | 0.00 | 90 | 298.5 |
| 20260506084832 | 12 | 200 | 22.5 | 35.4 | 0.00 | 0.00 | 0.00 | 87 | 298.6 |
| 20260506083333 | 12 | 200 | 22.5 | 35.4 | 0.00 | 0.00 | 0.00 | 87 | 298.6 |
| 20260506081833 | 12 | 200 | 22.5 | 35.4 | 0.00 | 0.00 | 0.00 | 87 | 298.6 |
| 20260506073412 | 12 | 210 | 25.7 | 46.7 | 0.00 | 0.00 | 0.00 | 87 | 298.7 |
| 20260506073334 | 12 | 210 | 25.7 | 46.7 | 0.00 | 0.00 | 0.00 | 87 | 298.7 |
| 20260506071834 | 12 | 210 | 25.7 | 46.7 | 0.00 | 0.00 | 0.00 | 87 | 298.7 |
| 20260506070332 | 12 | 210 | 25.7 | 46.7 | 0.00 | 0.00 | 0.00 | 87 | 298.7 |
| 20260506061834 | 13 | 210 | 35.4 | 48.3 | 0.00 | 0.00 | 0.00 | 83 | 298.6 |
| 20260506060336 | 13 | 210 | 35.4 | 48.3 | 0.00 | 0.00 | 0.00 | 83 | 298.6 |
| 20260506050333 | 13 | 210 | 24.1 | 40.2 | 0.00 | 0.00 | 0.00 | 81 | 298.7 |
| 20260506044833 | 13 | 210 | 38.6 | 56.3 | 0.00 | 0.00 | 0.00 | 81 | 298.7 |
| 20260506042012 | 13 | 210 | 38.6 | 56.3 | 0.00 | 0.00 | 0.00 | 81 | 298.7 |
| 20260506041832 | 13 | 210 | 38.6 | 56.3 | 0.00 | 0.00 | 0.00 | 81 | 298.7 |
| 20260506040333 | 13 | 210 | 38.6 | 56.3 | 0.00 | 0.00 | 0.00 | 81 | 298.7 |
| 20260506034832 | 15 | 200 | 37.0 | 53.1 | 0.00 | 0.00 | 0.00 | 77 | 298.7 |
| 20260506033333 | 15 | 200 | 37.0 | 53.1 | 0.00 | 0.00 | 0.00 | 77 | 298.7 |
| 20260506031833 | 15 | 200 | 37.0 | 53.1 | 0.00 | 0.00 | 0.00 | 77 | 298.7 |
| 20260506030417 | 15 | 200 | 37.0 | 53.1 | 0.00 | 0.00 | 0.00 | 77 | 298.7 |
| 20260506030333 | 15 | 200 | 37.0 | 53.1 | 0.00 | 0.00 | 0.00 | 77 | 298.7 |
| 20260506024834 | 15 | 200 | 33.8 | 57.9 | 0.00 | 0.00 | 0.00 | 72 | 298.7 |
| 20260506023334 | 15 | 200 | 33.8 | 57.9 | 0.00 | 0.00 | 0.00 | 72 | 298.7 |
| 20260506021834 | 15 | 200 | 33.8 | 57.9 | 0.00 | 0.00 | 0.00 | 72 | 298.7 |
| 20260506020333 | 15 | 200 | 33.8 | 57.9 | 0.00 | 0.00 | 0.00 | 72 | 298.7 |
| 20260506014833 | 15 | 210 | 32.2 | 53.1 | 0.00 | 0.00 | 0.00 | 70 | 298.5 |
| 20260506013333 | 15 | 210 | 32.2 | 53.1 | 0.00 | 0.00 | 0.00 | 70 | 298.5 |
| 20260506011833 | 15 | 210 | 32.2 | 53.1 | 0.00 | 0.00 | 0.00 | 70 | 298.5 |
| 20260506010335 | 15 | 210 | 32.2 | 53.1 | 0.00 | 0.00 | 0.00 | 70 | 298.5 |
| 20260506004832 | 16 | 200 | 32.2 | 56.3 | 0.00 | 0.00 | 0.00 | 67 | 298.3 |
| 20260506003333 | 16 | 200 | 32.2 | 56.3 | 0.00 | 0.00 | 0.00 | 67 | 298.3 |
| 20260506000333 | 16 | 200 | 32.2 | 56.3 | 0.00 | 0.00 | 0.00 | 67 | 298.3 |
| 20260505234834 | 16 | 200 | 38.6 | 59.5 | 0.00 | 0.00 | 0.00 | 65 | 298.1 |
| 20260505233333 | 16 | 200 | 38.6 | 59.5 | 0.00 | 0.00 | 0.00 | 65 | 298.1 |
| 20260505231833 | 16 | 200 | 38.6 | 59.5 | 0.00 | 0.00 | 0.00 | 65 | 298.1 |
| 20260505230440 | 16 | 200 | 38.6 | 59.5 | 0.00 | 0.00 | 0.00 | 65 | 298.1 |
| 20260505230333 | 16 | 200 | 38.6 | 59.5 | 0.00 | 0.00 | 0.00 | 65 | 298.1 |
| 20260505224833 | 17 | 210 | 41.8 | 72.4 | 0.00 | 0.00 | 0.00 | 63 | 298.0 |
| 20260505223333 | 17 | 210 | 41.8 | 72.4 | 0.00 | 0.00 | 0.00 | 63 | 298.0 |
| 20260505221834 | 17 | 210 | 41.8 | 72.4 | 0.00 | 0.00 | 0.00 | 63 | 298.0 |
| 20260505220333 | 17 | 210 | 41.8 | 72.4 | 0.00 | 0.00 | 0.00 | 63 | 298.0 |
| 20260505213334 | 17 | 200 | 37.0 | 57.9 | 0.00 | 0.00 | 0.00 | 61 | 297.9 |
| 20260505211834 | 17 | 200 | 37.0 | 57.9 | 0.00 | 0.00 | 0.00 | 61 | 297.9 |
| 20260505210333 | 17 | 200 | 37.0 | 57.9 | 0.00 | 0.00 | 0.00 | 61 | 297.9 |
| 20260505204833 | 17 | 190 | 37.0 | 51.5 | 0.00 | 0.00 | 0.00 | 63 | 298.0 |
| 20260505203426 | 17 | 190 | 37.0 | 51.5 | 0.00 | 0.00 | 0.00 | 63 | 298.0 |
| 20260505203334 | 17 | 190 | 37.0 | 51.5 | 0.00 | 0.00 | 0.00 | 63 | 298.0 |
| 20260505201833 | 17 | 190 | 37.0 | 51.5 | 0.00 | 0.00 | 0.00 | 63 | 298.0 |
| 20260505200334 | 17 | 190 | 37.0 | 51.5 | 0.00 | 0.00 | 0.00 | 63 | 298.0 |
| 20260505194834 | 17 | 190 | 24.1 | 37.0 | 0.00 | 0.00 | 0.00 | 65 | 298.4 |
| 20260505193334 | 17 | 190 | 24.1 | 37.0 | 0.00 | 0.00 | 0.00 | 65 | 298.4 |
| 20260505191833 | 17 | 190 | 24.1 | 37.0 | 0.00 | 0.00 | 0.00 | 65 | 298.4 |
| 20260505190333 | 17 | 190 | 24.1 | 37.0 | 0.00 | 0.00 | 0.00 | 65 | 298.4 |
| 20260505184835 | 17 | 190 | 24.1 | 0.0 | 0.00 | 0.00 | 0.00 | 68 | 298.5 |
| 20260505183333 | 17 | 190 | 24.1 | 0.0 | 0.00 | 0.00 | 0.00 | 68 | 298.5 |
| 20260505181941 | 17 | 190 | 24.1 | 0.0 | 0.00 | 0.00 | 0.00 | 68 | 298.5 |
| 20260505181833 | 17 | 190 | 24.1 | 0.0 | 0.00 | 0.00 | 0.00 | 68 | 298.5 |
| 20260505180334 | 17 | 190 | 24.1 | 0.0 | 0.00 | 0.00 | 0.00 | 68 | 298.5 |
| 20260505174834 | 17 | 190 | 24.1 | 0.0 | 0.00 | 0.00 | 0.00 | 67 | 298.6 |
| 20260505173332 | 17 | 190 | 24.1 | 0.0 | 0.00 | 0.00 | 0.00 | 67 | 298.6 |
| 20260505171834 | 17 | 190 | 24.1 | 0.0 | 0.00 | 0.00 | 0.00 | 67 | 298.6 |
| 20260505170419 | 17 | 190 | 24.1 | 0.0 | 0.00 | 0.00 | 0.00 | 67 | 298.6 |
| 20260505170333 | 17 | 190 | 24.1 | 0.0 | 0.00 | 0.00 | 0.00 | 67 | 298.6 |
| 20260505164904 | 18 | 180 | 19.3 | 0.0 | 0.00 | 0.00 | 0.00 | 65 | 298.8 |
| 20260505164833 | 18 | 180 | 19.3 | 0.0 | 0.00 | 0.00 | 0.00 | 65 | 298.8 |
| 20260505163334 | 18 | 180 | 19.3 | 0.0 | 0.00 | 0.00 | 0.00 | 65 | 298.8 |
| 20260505161906 | 18 | 180 | 19.3 | 0.0 | 0.00 | 0.00 | 0.00 | 65 | 298.8 |
| 20260505161833 | 18 | 180 | 19.3 | 0.0 | 0.00 | 0.00 | 0.00 | 65 | 298.8 |
| 20260505160430 | 18 | 180 | 19.3 | 0.0 | 0.00 | 0.00 | 0.00 | 65 | 298.8 |
| 20260505160333 | 18 | 180 | 19.3 | 0.0 | 0.00 | 0.00 | 0.00 | 65 | 298.8 |
| 20260505153333 | 17 | 180 | 16.1 | 0.0 | 0.00 | 0.00 | 0.00 | 70 | 298.9 |
| 20260505151834 | 17 | 180 | 16.1 | 0.0 | 0.00 | 0.00 | 0.00 | 70 | 298.9 |
| 20260505150332 | 17 | 180 | 16.1 | 0.0 | 0.00 | 0.00 | 0.00 | 70 | 298.9 |